Tracking 25693 objects as of 1-Jul-2022
HD Live streaming from Space Station
objects crossing your sky now

FENGYUN 1C DEB

Track FENGYUN 1C DEB now!
10-day predictions


NORAD ID: 31030
Int'l Code: 1999-025BDY
Perigee: 821.3 km
Apogee: 868.2 km
Inclination: 98.9 °
Period: 101.7 minutes
Semi major axis: 7215 km
RCS: 0.0064 m2 (small)
Launch date: May 10, 1999
Source: People's Republic of China (PRC)
Launch site: Taiyaun Space Center, China (TSC)

Note: This is SATELLITE DEBRIS
aabbcc
Your satellite tracking list
Your tracking list is empty




NASA's NSSDC Master Catalog

Two Line Element Set (TLE):
1 31030U 99025BDY 22180.65583521  .00000748  00000-0  39663-3 0  9999
2 31030  98.8875 230.6946 0032472 103.7006  23.2986 14.16386689787980
Source of the keplerian elements: AFSPC